Wind_Speed
35 37 27 23 24 27 26 26 25 24 21 22 21 21 22 23 23 22 23 22 27 36 42 40 36 36 31 32 30 25 23 23 21 14 13 11 8 8 11 10 10 14 17
32 24 23 25 28 28 26 22 21 20 20 20 18 18 20 20 21 21 22 22 25 25 25 33 43 37 36 35 31 28 24 23 22 17 15 10 10 9 9 9 9 9 12
25 22 25 27 26 23 24 23 21 19 19 21 21 21 20 20 20 22 22 23 22 23 22 23 29 41 39 37 33 30 26 26 23 20 18 13 10 12 9 10 9 7 11
26 23 25 27 24 24 23 22 17 17 18 19 19 18 16 16 18 19 22 21 22 21 20 22 25 31 40 44 37 33 28 25 23 21 19 17 12 15 10 9 10 6 9
25 25 27 26 24 24 24 20 16 17 18 16 17 13 14 15 16 17 19 22 21 21 19 20 22 26 32 41 35 33 30 27 25 22 18 18 14 15 12 9 8 7 6
24 26 28 27 24 24 23 16 18 18 15 15 14 13 15 13 14 14 15 18 19 18 16 18 19 22 29 35 35 29 30 30 26 22 19 19 15 16 13 11 8 11 8
26 25 28 26 25 22 20 16 18 18 18 13 13 15 15 12 9 9 15 16 16 15 13 17 18 26 27 30 34 29 29 26 23 20 19 21 16 15 12 12 10 12 10
24 26 27 26 26 22 19 13 17 19 16 13 12 13 14 11 6 8 9 11 13 11 13 14 21 25 32 31 34 31 29 25 21 20 17 20 14 15 14 13 13 12 7
24 26 26 26 25 22 20 18 15 17 16 15 14 12 13 10 9 8 10 10 10 8 13 18 23 22 28 34 34 33 27 24 20 18 18 16 13 15 14 11 13 13 9
24 25 22 24 25 22 20 18 15 16 13 14 14 11 12 11 8 7 7 10 9 12 13 19 23 27 31 32 33 30 27 22 20 20 21 12 13 14 13 13 15 15 9
23 23 22 24 25 24 21 16 16 15 15 16 15 15 14 9 9 9 7 9 9 16 15 19 23 25 35 36 29 25 24 20 19 19 19 13 12 11 11 12 17 16 14
22 21 19 21 25 27 23 17 15 15 16 14 17 15 16 12 11 10 8 10 11 15 18 19 24 23 27 31 26 22 19 16 17 20 17 13 12 11 11 9 10 13 15
20 19 19 19 22 23 27 24 17 14 14 14 17 17 15 15 11 12 11 11 12 11 14 19 19 25 23 31 21 20 19 15 15 20 16 12 10 8 7 6 11 12 14
18 17 18 19 21 24 19 21 23 19 17 15 15 14 13 13 11 12 14 9 12 17 16 22 19 28 27 26 21 17 16 14 16 18 16 14 11 10 8 8 12 14 14
18 20 18 18 21 22 21 17 18 19 19 18 17 17 17 16 14 10 11 15 17 18 21 26 22 26 30 25 20 17 15 15 17 15 14 15 14 12 6 12 11 9 14
22 19 20 20 20 23 22 20 18 18 18 20 18 14 18 17 17 21 19 17 16 21 24 22 27 29 27 24 22 19 18 16 10 12 9 10 16 12 11 14 13 12 17
25 20 18 19 18 22 21 18 19 18 18 20 21 19 16 17 20 20 19 21 23 24 25 25 24 23 22 21 21 19 18 15 14 4 5 5 8 12 14 15 12 18 20
33 26 20 17 18 17 18 19 19 20 19 21 20 19 19 20 18 17 17 19 20 18 17 17 18 17 17 17 18 18 18 13 8 4 2 4 8 14 18 12 12 18 20
30 33 27 19 17 17 16 16 17 18 18 17 16 16 16 17 17 15 13 13 16 16 13 12 12 13 14 16 15 16 14 11 6 6 6 6 10 18 16 13 11 17 17
27 29 31 26 18 15 19 20 18 17 16 16 19 19 16 14 15 14 12 12 11 10 8 7 9 16 18 14 14 12 12 11 8 9 7 9 16 15 14 16 12 14 15
24 25 27 30 28 20 16 18 20 19 17 16 16 17 18 17 16 15 14 10 8 9 9 11 14 17 15 12 12 12 11 10 10 9 8 11 15 16 17 18 15 14 14
22 22 23 25 27 27 25 17 13 15 14 17 18 17 17 14 13 12 11 9 8 7 6 8 9 9 10 9 10 9 11 11 12 8 8 7 8 16 17 15 17 16 17
20 20 21 21 22 22 24 26 21 15 10 12 11 11 10 10 10 10 9 9 8 6 3 1 2 5 7 9 12 13 12 12 11 14 12 10 10 15 15 17 17 17 17
22 21 20 20 19 20 21 22 23 24 18 12 8 7 8 8 8 6 6 6 6 4 2 1 2 1 5 7 8 11 12 12 14 14 12 11 16 16 15 15 15 14 15
27 23 22 21 21 20 18 18 19 20 20 21 18 12 7 5 4 5 7 9 11 10 7 5 4 2 5 5 7 10 10 12 12 12 12 13 14 16 14 15 17 16 16
29 29 28 25 22 20 19 18 17 16 16 17 18 18 16 13 8 5 5 4 3 6 9 7 6 6 5 5 7 9 7 8 7 6 7 11 12 11 11 16 17 17 17
Wind_Direction
313 317 316 310 304 301 304 301 298 302 300 296 285 280 275 269 266 264 257 251 245 242 237 232 236 239 238 227 216 225 223 221 226 224 218 234 237 234 208 205 217 210 207
322 326 322 314 314 314 313 308 310 303 301 302 294 286 286 276 263 256 254 255 247 245 240 234 230 229 231 234 212 216 216 215 219 223 214 227 221 192 198 201 191 197 206
334 329 328 331 330 325 319 317 311 309 308 302 297 293 284 275 262 264 256 253 249 246 243 236 225 221 222 225 212 207 213 214 222 223 217 221 211 191 193 200 195 223 221
345 336 338 337 335 331 326 322 326 317 315 312 311 305 292 281 268 260 253 247 237 241 246 235 225 217 217 222 219 198 207 209 210 211 210 215 202 189 194 211 219 251 216
351 344 344 342 342 338 332 326 331 329 323 325 329 320 312 293 283 256 251 235 228 230 239 235 218 210 205 213 213 192 200 201 204 206 205 204 197 185 197 200 216 225 228
345 350 350 347 342 340 344 347 342 341 339 336 342 339 325 305 290 254 229 223 217 215 234 204 212 201 204 203 194 191 197 195 199 202 202 198 198 183 198 210 210 204 238
352 351 350 351 348 343 348 345 348 348 338 335 350 348 349 338 316 220 199 211 198 210 216 193 193 187 191 191 177 187 195 201 209 203 202 193 197 183 197 201 202 205 220
354 354 354 357 355 356 358 355 1 2 3 1 357 2 9 21 54 138 170 169 184 200 196 183 177 184 180 178 173 185 190 197 202 201 195 189 174 181 196 200 202 213 229
1 0 4 3 6 10 15 12 15 9 13 18 16 23 30 47 61 95 135 142 164 176 176 175 165 176 183 173 175 177 178 184 184 184 193 174 164 183 202 215 208 210 240
9 6 13 14 16 20 19 20 22 11 18 19 26 44 40 49 71 101 133 153 155 150 160 174 160 166 168 172 175 171 179 184 182 181 182 173 177 204 220 219 205 214 240
11 10 34 28 25 25 24 22 18 26 36 33 50 48 43 53 72 94 111 138 131 148 147 166 170 150 163 167 171 182 185 181 180 179 180 176 180 209 213 198 190 216 236
14 19 38 33 25 25 27 26 29 30 37 47 50 49 41 63 81 90 101 116 124 146 146 154 167 162 150 163 168 175 174 180 179 175 177 178 193 223 202 186 204 206 200
15 25 31 35 22 20 26 36 37 34 37 53 53 50 52 58 83 102 96 102 124 125 144 152 164 169 160 151 150 164 175 179 179 174 179 190 210 223 180 191 192 181 195
17 21 27 31 24 21 25 34 42 41 42 55 54 55 57 60 77 113 122 114 123 132 138 149 142 167 168 158 157 155 170 179 176 183 189 199 209 216 208 166 175 187 191
14 16 27 25 16 22 26 32 35 37 44 49 55 59 65 76 83 94 114 122 125 129 139 142 145 158 166 171 169 172 176 175 180 199 210 212 198 222 203 171 188 186 181
15 16 17 21 26 33 37 41 46 45 41 45 56 55 60 79 91 97 100 107 116 134 135 139 140 150 158 166 174 177 179 177 188 188 159 177 195 216 197 187 185 179 176
18 15 27 28 42 42 36 49 55 51 56 64 61 61 68 82 105 104 99 101 121 130 125 132 134 146 153 159 168 178 174 168 171 181 146 153 192 193 192 175 197 179 182
24 23 25 33 45 54 47 50 53 58 66 65 67 63 66 86 105 110 112 119 124 129 130 137 142 147 154 167 173 169 165 164 185 189 205 223 206 183 177 191 181 184 192
26 27 28 33 39 42 39 53 66 65 69 70 69 67 69 75 80 90 112 125 133 146 147 149 159 166 164 157 158 160 173 193 216 221 229 231 185 178 187 202 187 182 179
27 29 31 35 41 38 40 43 57 71 64 67 69 68 67 76 80 85 91 109 120 128 143 165 158 153 155 159 167 176 198 221 218 224 227 198 182 190 194 197 191 179 192
26 28 32 36 39 38 45 47 51 63 66 64 73 78 71 71 80 82 89 94 99 89 98 111 136 155 165 178 189 192 185 203 216 222 215 170 182 191 185 191 200 206 204
23 27 30 34 37 40 41 46 55 63 72 70 77 77 78 75 61 59 71 88 86 78 80 95 123 153 173 182 183 204 222 205 202 202 195 212 184 182 190 202 195 195 191
23 27 30 33 35 36 39 39 45 55 66 72 73 74 65 55 48 41 49 49 45 32 45 286 205 204 207 194 197 197 203 223 213 199 218 216 184 176 184 190 191 185 195
24 25 30 32 33 35 34 36 38 41 50 54 65 69 61 47 54 39 26 15 27 43 73 108 261 280 161 177 180 178 200 205 208 212 216 209 191 194 187 183 186 196 198
35 34 29 27 29 32 35 33 32 32 35 36 41 51 66 67 51 12 1 19 22 8 4 4 335 85 169 187 188 192 198 194 199 201 194 183 174 178 189 185 184 183 178
33 32 33 34 32 26 25 29 29 26 25 26 28 27 36 37 38 14 355 13 351 317 340 21 59 96 124 123 138 165 166 187 177 184 175 190 181 184 181 165 171 175 177
Height
1482 1475 1469 1466 1462 1457 1452 1448 1444 1441 1440 1437 1435 1433 1432 1432 1432 1433 1433 1435 1436 1440 1444 1449 1454 1462 1467 1471 1478 1484 1488 1492 1495 1498 1501 1503 1504 1505 1507 1511 1513 1514 1518
1475 1470 1465 1461 1456 1450 1446 1442 1439 1436 1433 1431 1429 1427 1425 1424 1425 1425 1427 1428 1430 1432 1435 1438 1444 1453 1459 1465 1471 1478 1483 1488 1492 1495 1498 1500 1503 1504 1507 1510 1512 1514 1516
1471 1466 1461 1456 1451 1446 1441 1437 1434 1431 1429 1426 1424 1421 1419 1417 1418 1419 1420 1422 1423 1426 1428 1431 1435 1443 1450 1458 1464 1473 1479 1484 1488 1492 1495 1498 1501 1503 1507 1509 1511 1513 1514
1469 1464 1458 1453 1447 1443 1438 1434 1429 1426 1424 1421 1418 1415 1412 1411 1410 1411 1413 1415 1417 1420 1423 1425 1428 1433 1441 1450 1458 1467 1475 1480 1485 1489 1493 1496 1499 1502 1505 1508 1510 1511 1512
1468 1462 1456 1451 1445 1440 1435 1430 1426 1423 1420 1416 1413 1410 1408 1405 1404 1404 1405 1408 1412 1415 1418 1420 1423 1428 1436 1443 1454 1462 1471 1477 1482 1486 1490 1494 1497 1500 1503 1507 1509 1510 1511
1467 1461 1455 1449 1443 1438 1432 1428 1425 1421 1417 1414 1411 1407 1404 1400 1398 1398 1400 1403 1407 1411 1413 1416 1420 1426 1432 1441 1451 1461 1468 1474 1479 1483 1487 1491 1495 1498 1502 1505 1507 1509 1510
1466 1461 1454 1448 1442 1436 1431 1427 1424 1420 1416 1412 1409 1406 1401 1397 1393 1392 1397 1401 1405 1409 1411 1415 1418 1423 1430 1439 1449 1460 1468 1474 1479 1483 1486 1490 1493 1496 1500 1504 1506 1507 1508
1466 1460 1454 1448 1442 1436 1430 1426 1424 1420 1415 1412 1409 1405 1401 1397 1394 1395 1397 1400 1404 1408 1410 1414 1419 1424 1431 1439 1448 1457 1466 1472 1477 1481 1485 1489 1491 1495 1499 1502 1504 1506 1507
1466 1461 1455 1449 1442 1436 1431 1427 1424 1420 1416 1413 1409 1406 1403 1400 1399 1399 1400 1403 1406 1408 1410 1415 1420 1425 1432 1440 1449 1456 1464 1470 1475 1479 1484 1487 1490 1494 1497 1500 1503 1505 1506
1468 1463 1457 1451 1444 1438 1434 1430 1426 1421 1418 1414 1411 1408 1406 1404 1403 1403 1403 1405 1407 1409 1412 1417 1422 1428 1434 1442 1450 1457 1464 1469 1474 1478 1483 1487 1490 1494 1497 1499 1502 1503 1505
1471 1465 1459 1454 1448 1442 1437 1432 1428 1424 1420 1417 1414 1412 1409 1407 1406 1406 1407 1408 1409 1412 1416 1419 1425 1431 1437 1445 1453 1459 1465 1470 1474 1478 1483 1487 1490 1493 1494 1495 1499 1501 1502
1473 1467 1462 1458 1453 1447 1440 1435 1431 1428 1424 1421 1418 1415 1413 1410 1410 1410 1410 1411 1413 1416 1419 1423 1428 1434 1440 1447 1455 1462 1467 1471 1474 1478 1483 1486 1489 1491 1492 1494 1496 1498 1501
1475 1470 1466 1461 1457 1451 1445 1439 1435 1431 1428 1425 1423 1420 1418 1416 1414 1415 1415 1416 1418 1421 1424 1428 1432 1438 1444 1451 1458 1463 1467 1472 1475 1479 1483 1485 1487 1490 1492 1493 1494 1497 1500
1477 1472 1468 1464 1460 1455 1450 1445 1440 1436 1432 1429 1427 1424 1422 1421 1419 1419 1420 1421 1422 1425 1428 1432 1436 1442 1449 1454 1460 1464 1469 1473 1476 1480 1483 1485 1487 1490 1491 1492 1495 1498 1500
1480 1476 1471 1467 1463 1459 1453 1449 1445 1441 1438 1435 1432 1430 1427 1425 1425 1425 1425 1425 1427 1430 1432 1436 1441 1445 1451 1457 1462 1466 1470 1473 1476 1479 1482 1484 1486 1489 1490 1492 1494 1496 1499
1483 1478 1475 1470 1466 1462 1458 1453 1450 1446 1443 1440 1438 1436 1433 1432 1431 1431 1432 1433 1434 1436 1439 1442 1446 1450 1455 1460 1464 1468 1471 1474 1477 1480 1482 1483 1486 1488 1489 1492 1494 1496 1499
1485 1480 1477 1474 1469 1466 1462 1458 1455 1452 1449 1446 1444 1442 1440 1438 1438 1439 1439 1440 1441 1444 1446 1449 1452 1456 1460 1463 1466 1469 1472 1476 1479 1481 1482 1483 1485 1487 1488 1491 1493 1497 1500
1490 1483 1479 1477 1473 1470 1466 1463 1460 1457 1455 1453 1451 1449 1447 1446 1446 1446 1447 1448 1449 1452 1453 1455 1457 1460 1462 1465 1467 1471 1474 1477 1480 1481 1482 1483 1484 1485 1488 1490 1492 1497 1499
1495 1489 1483 1479 1477 1473 1470 1468 1465 1463 1461 1458 1457 1455 1454 1453 1453 1452 1452 1454 1455 1456 1457 1459 1460 1462 1464 1467 1470 1473 1476 1478 1479 1481 1482 1482 1483 1486 1488 1489 1492 1495 1499
1500 1495 1490 1484 1480 1477 1475 1472 1469 1467 1466 1464 1462 1461 1460 1459 1459 1458 1458 1458 1459 1459 1460 1460 1461 1463 1466 1469 1472 1474 1476 1477 1479 1480 1481 1481 1484 1487 1488 1489 1491 1495 1499
1505 1501 1496 1491 1485 1481 1479 1477 1474 1472 1470 1469 1467 1466 1465 1465 1464 1464 1463 1463 1463 1463 1463 1463 1465 1467 1469 1470 1472 1473 1475 1477 1478 1478 1479 1481 1484 1486 1488 1490 1492 1494 1497
1509 1505 1501 1496 1492 1488 1483 1480 1478 1477 1475 1474 1473 1472 1471 1470 1469 1468 1467 1467 1467 1467 1467 1468 1468 1469 1470 1470 1472 1472 1473 1475 1476 1478 1478 1480 1480 1483 1486 1489 1491 1493 1496
1512 1509 1505 1502 1498 1494 1491 1487 1483 1480 1479 1478 1476 1475 1474 1473 1472 1471 1470 1470 1469 1468 1468 1467 1467 1467 1468 1469 1470 1471 1472 1473 1475 1476 1477 1478 1480 1483 1485 1487 1489 1492 1495
1515 1511 1508 1505 1502 1499 1495 1492 1489 1485 1483 1481 1479 1478 1477 1476 1475 1474 1472 1471 1470 1469 1468 1466 1466 1466 1467 1467 1469 1470 1471 1472 1473 1475 1476 1476 1478 1480 1483 1486 1488 1491 1494
1518 1514 1511 1508 1505 1502 1500 1497 1494 1492 1489 1485 1482 1480 1480 1479 1477 1476 1474 1473 1471 1469 1467 1466 1463 1464 1466 1466 1467 1469 1470 1471 1471 1472 1474 1475 1476 1479 1481 1483 1486 1488 1492
1524 1520 1516 1511 1507 1504 1502 1500 1498 1495 1493 1491 1488 1485 1481 1479 1478 1478 1475 1474 1472 1470 1467 1466 1465 1465 1465 1465 1466 1468 1469 1470 1471 1472 1472 1473 1475 1477 1479 1481 1484 1488 1492